Location: Rooftop Observatory
(39.0308°N, 87.1711°W)
Time: 17:41:24
(UTC-05:00)

Terra - Visible Passes

Search period start: 30 August 2015 00:00
Search period end: 09 September 2015 00:00
Orbit: 702 x 703 km, 98.2° (Epoch: 30 August)

Date Brightness Start Highest point End Pass type
(mag) Time Alt. Az. Time Alt. Az. Time Alt. Az.
30 Aug 3.6 22:30:35 25° N 22:30:35 25° N 22:32:41 10° N visible
31 Aug 4.0 21:35:03 13° NE 21:35:03 13° NE 21:36:10 10° NNE visible
31 Aug 4.2 23:13:57 20° NNW 23:13:57 20° NNW 23:15:28 10° NNW visible
01 Sep 3.8 22:18:25 22° NNE 22:18:25 22° NNE 22:20:16 10° N visible
01 Sep 4.9 23:57:18 10° NW 23:57:18 10° NW 23:57:18 10° NW visible
02 Sep 4.1 23:01:46 20° NNW 23:01:46 20° NNW 23:03:16 10° NNW visible
03 Sep 3.9 22:06:14 18° NNE 22:06:14 18° NNE 22:07:47 10° N visible
03 Sep 4.8 23:45:07 12° NW 23:45:07 12° NW 23:45:27 10° NW visible
04 Sep 4.1 22:49:35 20° N 22:49:35 20° N 22:51:02 10° N visible
05 Sep 4.1 21:54:02 15° NNE 21:54:02 15° NNE 21:55:11 10° NNE visible
05 Sep 4.7 23:32:56 13° NNW 23:32:56 13° NNW 23:33:28 10° NNW visible
06 Sep 4.2 22:37:24 18° N 22:37:24 18° N 22:38:42 10° N visible
07 Sep 4.2 21:41:52 12° NNE 21:41:52 12° NNE 21:42:26 10° NNE visible
07 Sep 4.7 23:20:45 14° NNW 23:20:45 14° NNW 23:21:23 10° NNW visible
08 Sep 4.2 22:25:14 16° N 22:25:14 16° N 22:26:19 10° N visible
